This demonstration page uses our WeatherBlox Daily Observations layout. Learn more.

Left ArrowRight Arrow

39.92423, -83.80882

Hourly Observations for April 1, 2022

Temp ( °F °C ) Dew Point ( °F °C ) Humidity (%) Winds ( mph kmh ) Pressure ( in mb ) Visibility ( mi km ) Precip ( " mm )
12:56 am 00:56 Cloudy with Light Rain 36 2 N/A N/A W 10 17 29.75 1007 10 16 0.00 0.00
1:56 am 01:56 Cloudy with Light Rain 36 2 N/A N/A W 12 19 29.75 1007 10 16 0.00 0.00
2:56 am 02:56 Cloudy with Light Rain 36 2 N/A N/A W 12 19 29.76 1008 10 16 0.00 0.00
3:45 am 03:45 Cloudy with Light Rain 36 2 N/A N/A W 10 17 29.78 1009 10 16 0.00 0.00
3:56 am 03:56 Cloudy with Light Rain 36 2 N/A N/A W 14 22 29.76 1008 10 16 0.00 0.00
4:49 am 04:49 Cloudy with Light Snow 36 2 N/A N/A W 14 22 29.78 1009 7 11 0.00 0.00
4:56 am 04:56 Cloudy with Light Rain 34 1 N/A N/A W 15 24 29.77 1008 8 13 0.00 0.00
5:56 am 05:56 Cloudy 34 1 N/A N/A W 16 26 29.79 1009 10 16 0.00 0.00
6:09 am 06:09 Cloudy 34 1 N/A N/A W 14 22 29.82 1010 10 16 0.00 0.00
6:40 am 06:40 Cloudy 34 1 N/A N/A W 10 17 29.84 1010 10 16 0.00 0.00
6:56 am 06:56 Cloudy 34 1 N/A N/A W 12 19 29.82 1010 10 16 0.00 0.00
7:43 am 07:43 Cloudy with Light Snow 34 1 N/A N/A W 15 24 29.88 1012 7 11 0.00 0.00
7:56 am 07:56 Cloudy with Light Snow 34 1 N/A N/A W 14 22 29.86 1011 9 14 0.00 0.00
8:05 am 08:05 Cloudy 34 1 N/A N/A W 13 20 29.89 1012 10 16 0.00 0.00
8:45 am 08:45 Cloudy 34 1 N/A N/A W 13 20 29.92 1013 10 16 0.00 0.00
8:56 am 08:56 Cloudy 36 2 N/A N/A W 12 19 29.90 1013 10 16 0.00 0.00
9:56 am 09:56 Cloudy 37 2.8 34 1.1 89 89 WNW 15 24 29.93 1013 10 16 0.00 0.00
10:56 am 10:56 Cloudy 37 2.8 32 0 82 82 W 21 33 29.97 1015 10 16 0.00 0.00
11:56 am 11:56 Cloudy 37 2.8 28 -2.2 70 70 WNW 21 33 30.00 1016 10 16 0.00 0.00
12:04 pm 12:04 Cloudy 37 3 28 -2 70 70 NW 18 30 30.02 1017 10 16 0.00 0.00
12:56 pm 12:56 Cloudy 36 2.2 26 -3.3 67 67 WNW 15 24 30.04 1017 10 16 0.00 0.00
1:56 pm 13:56 Cloudy 37 2.8 28 -2.2 70 70 W 17 28 30.06 1018 10 16 0.00 0.00
2:56 pm 14:56 Cloudy 39 3.9 28 -2.2 65 65 W 16 26 30.08 1019 10 16 0.00 0.00
3:56 pm 15:56 Cloudy 39 3.9 26 -3.3 60 60 WNW 20 31 30.09 1019 10 16 0.00 0.00
4:56 pm 16:56 Cloudy 39 3.9 27 -2.8 62 62 WNW 15 24 30.11 1020 10 16 0.00 0.00
5:56 pm 17:56 Cloudy 39 3.9 27 -2.8 62 62 WNW 12 19 30.13 1020 10 16 0.00 0.00
6:56 pm 18:56 Cloudy 39 3.9 26 -3.3 60 60 WNW 13 20 30.15 1021 10 16 0.00 0.00
7:56 pm 19:56 Cloudy 38 3.3 25 -3.9 60 60 WNW 12 19 30.16 1021 10 16 0.00 0.00
8:56 pm 20:56 Cloudy 36 2.2 26 -3.3 67 67 W 6 9 30.19 1022 10 16 0.00 0.00
9:56 pm 21:56 Mostly Cloudy 36 2.2 26 -3.3 67 67 Calm 30.20 1023 10 16 0.00 0.00
10:56 pm 22:56 Mostly Cloudy 32 0 28 -2.2 85 85 Calm 30.21 1023 10 16 0.00 0.00
11:56 pm 23:56 Clear 30 -1.1 28 -2.2 92 92 Calm 30.21 1023 10 16 0.00 0.00

Powered by AerisWeather